User: anonymous   Login
Location: Plymouth
(43.7570°N, 71.6890°W)
Time: 09:41:14
(UTC-04:00)
Language:

COSMOS 2406 - Orbit

View from above orbital plane
View from above orbital plane
View from above satellite
View from above satellite

Ground track
Ground track

The orbit data is extracted from the following two-line orbital elements,

1 28352U 04021A   17234.78872951 +.00000048 +00000-0 +52333-4 0  9993
2 28352 071.0082 345.6328 0014765 350.0385 010.0441 14.11641872680209
Epoch (UTC): 22 August 2017 18:55:46
Eccentricity: 0.0014765
inclination: 71.0082°
perigee height: 843 km
apogee height: 864 km
right ascension of ascending node: 345.6328°
argument of perigee: 350.0385°
revolutions per day: 14.11641872
mean anomaly at epoch: 10.0441°
orbit number at epoch: 68020

The dashed part of the orbit path shows where the satellite is in the earth's shadow,  

DLR